Observations for Trim Patrick St
| Time | AQI | Temp °C | Hum % | Pres Pa | CO μg/m³ | H₂S μg/m³ | NO μg/m³ | NO₂ μg/m³ | O₃ μg/m³ | SO₂ μg/m³ | PM1 μg/m³ | PM2.5 μg/m³ | PM10 μg/m³ |
|---|---|---|---|---|---|---|---|---|---|---|---|---|---|
| Wednesday 5 August 2026 | |||||||||||||
| 22:40 | 2 | 14.8 | 67 | 79,428 | 0.13 | 2.16 | 3.19 | 9.91 | 56.01 | 0 | 2 | 6.08 | 6.69 |
| 22:39 | 2 | 14.8 | 67 | 79,556 | 0.15 | 1.95 | 3.16 | 9.78 | 52.25 | 0 | 2 | 6.8 | 7.48 |
| 22:38 | 2 | 14.8 | 67 | 79,707 | 0.15 | 2.21 | 3.19 | 11.69 | 62.14 | 0 | 2 | 6.07 | 6.68 |
| 22:37 | 2 | 14.8 | 67 | 79,896 | 0.15 | 1.82 | 3.14 | 9.42 | 52 | 0 | 2 | 6.09 | 6.7 |
| 22:36 | 2 | 14.9 | 67 | 80,024 | 0.13 | 2.44 | 2.91 | 10 | 55.56 | 0 | 3.71 | 6.81 | 7.49 |
| 22:35 | 2 | 14.8 | 67 | 80,085 | 0.14 | 3.09 | 2.98 | 11.42 | 57.9 | 0 | 2.86 | 6.81 | 7.49 |
| 22:34 | 2 | 14.8 | 67 | 80,164 | 0.14 | 3.02 | 3.19 | 11.23 | 58.29 | 0 | 3.71 | 6.8 | 7.48 |
| 22:33 | 2 | 14.9 | 67 | 80,173 | 0.13 | 2.65 | 3.16 | 9.13 | 48.25 | 0 | 3.71 | 8.27 | 9.09 |
| 22:32 | 2 | 14.9 | 67 | 80,160 | 0.12 | 3.48 | 3.16 | 11.53 | 59.6 | 0 | 2.86 | 6.8 | 7.48 |
| 22:31 | 2 | 14.9 | 67 | 80,166 | 0.12 | 3.82 | 3.16 | 11.64 | 60.69 | 0 | 2 | 6.08 | 6.69 |
| 22:30 | 2 | 14.9 | 67 | 80,171 | 0.14 | 4.37 | 3.12 | 11.7 | 60.54 | 0 | 2 | 6.78 | 7.46 |
| 22:29 | 2 | 14.9 | 66 | 79,996 | 0.14 | 4.58 | 3.13 | 12.15 | 58.73 | 0 | 2.86 | 6.86 | 7.55 |
| 22:28 | 2 | 14.9 | 67 | 79,874 | 0.14 | 4.32 | 3.11 | 12.52 | 58.09 | 0 | 2.86 | 6.82 | 7.51 |
| 22:27 | 2 | 14.9 | 67 | 79,668 | 0.13 | 4.5 | 3.12 | 13.24 | 57.97 | 0 | 2.86 | 6.81 | 7.49 |
| 22:26 | 2 | 14.9 | 66 | 79,384 | 0.13 | 4.58 | 3.16 | 12.68 | 56.08 | 0 | 2 | 6.11 | 6.73 |
| 22:25 | 2 | 14.9 | 66 | 79,148 | 0.13 | 4.47 | 3.16 | 11.68 | 57.19 | 0 | 2.86 | 6.11 | 6.72 |
| 22:24 | 2 | 14.9 | 66 | 78,950 | 0.13 | 5.2 | 3.15 | 18.53 | 50.06 | 0 | 2 | 6.83 | 7.51 |
| 22:23 | 2 | 14.9 | 66 | 78,714 | 0.12 | 4.78 | 3.13 | 14.78 | 58.04 | 0 | 2.86 | 6.13 | 6.74 |
| 22:22 | 2 | 14.9 | 66 | 78,472 | 0.13 | 4.84 | 3.15 | 13.58 | 57.57 | 0 | 2 | 6.11 | 6.73 |
| 22:21 | 2 | 14.9 | 66 | 78,196 | 0.12 | 4.76 | 3.16 | 10.74 | 55.43 | 0 | 2.86 | 6.84 | 7.53 |